Tiempo cada hora Goldsboro

Hoy, 13 Mayo, Jueves

Tiempo Temperatura Precipitaciones Viento Presión Humedad
00:00 +9°C° 0 mm 1 mps 766 mmHg 87%
01:00 +8°C° 0 mm 2 mps 766 mmHg 86%
02:00 +7°C° 0 mm 2 mps 766 mmHg 87%
03:00 +7°C° 0 mm 2 mps 766 mmHg 88%
04:00 +6°C° 0 mm 2 mps 765 mmHg 89%
05:00 +7°C° 0 mm 3 mps 766 mmHg 85%
06:00 +8°C° 0 mm 3 mps 766 mmHg 81%
07:00 +9°C° 0 mm 3 mps 766 mmHg 76%
08:00 +11°C° 0 mm 4 mps 766 mmHg 68%
09:00 +14°C° 0 mm 4 mps 766 mmHg 60%
10:00 +18°C° 0 mm 4 mps 766 mmHg 51%
11:00 +19°C° 0 mm 4 mps 766 mmHg 47%
12:00 +20°C° 0 mm 4 mps 765 mmHg 43%
13:00 +21°C° 0 mm 4 mps 765 mmHg 39%
14:00 +21°C° 0 mm 4 mps 764 mmHg 39%
15:00 +21°C° 0 mm 4 mps 764 mmHg 38%
16:00 +21°C° 0 mm 3 mps 764 mmHg 37%
17:00 +20°C° 0 mm 3 mps 764 mmHg 45%
18:00 +18°C° 0 mm 3 mps 764 mmHg 54%
19:00 +16°C° 0 mm 3 mps 765 mmHg 62%
20:00 +14°C° 0 mm 3 mps 765 mmHg 64%
21:00 +13°C° 0 mm 3 mps 765 mmHg 66%
22:00 +13°C° 0 mm 2 mps 766 mmHg 68%
23:00 +13°C° 0 mm 2 mps 766 mmHg 69%

Mañana, 14 Mayo, Viernes

Tiempo Temperatura Precipitaciones Viento Presión Humedad
00:00 +12°C° 0 mm 2 mps 766 mmHg 70%
01:00 +11°C° 0 mm 1 mps 765 mmHg 71%
02:00 +10°C° 0 mm 2 mps 766 mmHg 71%
03:00 +10°C° 0 mm 2 mps 766 mmHg 71%
04:00 +9°C° 0 mm 2 mps 766 mmHg 71%
05:00 +10°C° 0 mm 2 mps 766 mmHg 69%
06:00 +12°C° 0 mm 2 mps 767 mmHg 66%
07:00 +13°C° 0 mm 2 mps 767 mmHg 64%
08:00 +15°C° 0 mm 2 mps 767 mmHg 57%
09:00 +17°C° 0 mm 3 mps 767 mmHg 50%
10:00 +19°C° 0 mm 3 mps 767 mmHg 42%
11:00 +20°C° 0 mm 3 mps 767 mmHg 40%
12:00 +21°C° 0 mm 3 mps 766 mmHg 38%
13:00 +22°C° 0 mm 3 mps 766 mmHg 35%
14:00 +21°C° 0 mm 3 mps 766 mmHg 36%
15:00 +21°C° 0 mm 3 mps 765 mmHg 38%
16:00 +21°C° 0 mm 3 mps 765 mmHg 39%
17:00 +20°C° 0 mm 3 mps 765 mmHg 46%
18:00 +18°C° 0 mm 2 mps 766 mmHg 53%
19:00 +16°C° 0 mm 2 mps 766 mmHg 60%
20:00 +15°C° 0 mm 2 mps 766 mmHg 63%
21:00 +15°C° 0 mm 1 mps 766 mmHg 66%
22:00 +14°C° 0 mm 1 mps 766 mmHg 69%
23:00 +13°C° 0 mm 1 mps 766 mmHg 70%

Pasado mañana, 15 Mayo, Sábado

Tiempo Temperatura Precipitaciones Viento Presión Humedad
00:00 +13°C° 0 mm 1 mps 766 mmHg 72%
01:00 +12°C° 0 mm 1 mps 766 mmHg 73%
02:00 +12°C° 0 mm 1 mps 766 mmHg 75%
03:00 +12°C° 0 mm 1 mps 766 mmHg 77%
04:00 +11°C° 0 mm 1 mps 767 mmHg 78%
05:00 +12°C° 0 mm 1 mps 767 mmHg 75%
06:00 +14°C° 0 mm 1 mps 767 mmHg 72%
07:00 +15°C° 0 mm 1 mps 767 mmHg 69%
08:00 +18°C° 0 mm 1 mps 767 mmHg 62%
09:00 +20°C° 0 mm 1 mps 767 mmHg 56%
10:00 +22°C° 0 mm 1 mps 767 mmHg 49%
11:00 +23°C° 0 mm 1 mps 767 mmHg 45%
12:00 +24°C° 0 mm 1 mps 767 mmHg 42%
13:00 +25°C° 0 mm 1 mps 766 mmHg 38%
14:00 +24°C° 0 mm 1 mps 766 mmHg 41%
15:00 +23°C° 0 mm 1 mps 766 mmHg 44%
16:00 +21°C° 0 mm 2 mps 765 mmHg 47%
17:00 +20°C° 0 mm 2 mps 766 mmHg 53%
18:00 +19°C° 0 mm 3 mps 766 mmHg 58%
19:00 +17°C° 0 mm 3 mps 766 mmHg 63%
20:00 +16°C° 0 mm 3 mps 766 mmHg 65%
21:00 +16°C° 0 mm 3 mps 766 mmHg 67%
22:00 +14°C° 0 mm 3 mps 767 mmHg 68%
23:00 +14°C° 0 mm 3 mps 766 mmHg 67%

16 Mayo, Domingo

Tiempo Temperatura Precipitaciones Viento Presión Humedad
00:00 +15°C° 0 mm 2 mps 766 mmHg 66%
01:00 +15°C° 0 mm 2 mps 766 mmHg 65%
02:00 +15°C° 0 mm 2 mps 766 mmHg 66%
03:00 +14°C° 0 mm 2 mps 766 mmHg 68%
04:00 +14°C° 0 mm 2 mps 766 mmHg 69%
05:00 +15°C° 0 mm 2 mps 767 mmHg 68%
06:00 +15°C° 0 mm 1 mps 767 mmHg 67%
07:00 +16°C° 0 mm 1 mps 768 mmHg 66%
08:00 +18°C° 0 mm 2 mps 768 mmHg 62%
09:00 +19°C° 0 mm 2 mps 768 mmHg 58%
10:00 +21°C° 0 mm 2 mps 768 mmHg 54%
11:00 +21°C° 0 mm 2 mps 767 mmHg 57%
12:00 +21°C° 0 mm 2 mps 767 mmHg 59%
13:00 +20°C° 0 mm 2 mps 767 mmHg 62%
14:00 +20°C° 0 mm 2 mps 766 mmHg 66%
15:00 +20°C° 0 mm 1 mps 766 mmHg 70%
16:00 +19°C° 0 mm 1 mps 765 mmHg 75%
17:00 +19°C° 0.1 mm 1 mps 765 mmHg 76%
18:00 +19°C° 0.1 mm 1 mps 766 mmHg 77%
19:00 +18°C° 0.1 mm 1 mps 766 mmHg 78%
20:00 +17°C° 0.2 mm 2 mps 766 mmHg 79%
21:00 +17°C° 0.2 mm 2 mps 766 mmHg 81%
22:00 +16°C° 0.2 mm 2 mps 765 mmHg 82%
23:00 +16°C° 0 mm 2 mps 765 mmHg 77%

17 Mayo, Lunes

Tiempo Temperatura Precipitaciones Viento Presión Humedad
00:00 +16°C° 0 mm 2 mps 765 mmHg 73%
01:00 +17°C° 0 mm 2 mps 764 mmHg 68%
02:00 +16°C° 0 mm 2 mps 764 mmHg 69%
03:00 +16°C° 0 mm 1 mps 764 mmHg 69%
04:00 +16°C° 0 mm 1 mps 764 mmHg 70%
05:00 +16°C° 0 mm 1 mps 765 mmHg 71%
06:00 +16°C° 0 mm 1 mps 765 mmHg 73%
07:00 +17°C° 0 mm 2 mps 765 mmHg 74%
08:00 +18°C° 0 mm 2 mps 765 mmHg 73%
09:00 +19°C° 0 mm 2 mps 765 mmHg 71%
10:00 +20°C° 0 mm 3 mps 765 mmHg 70%
11:00 +20°C° 0.2 mm 2 mps 765 mmHg 71%
12:00 +21°C° 0.2 mm 2 mps 765 mmHg 71%
13:00 +21°C° 0.2 mm 2 mps 764 mmHg 72%
14:00 +21°C° 0.1 mm 2 mps 764 mmHg 72%
15:00 +21°C° 0.1 mm 2 mps 764 mmHg 72%
16:00 +21°C° 0.1 mm 3 mps 763 mmHg 72%
17:00 +20°C° 1.6 mm 3 mps 764 mmHg 80%
18:00 +18°C° 1.6 mm 2 mps 764 mmHg 88%
19:00 +17°C° 1.6 mm 2 mps 765 mmHg 97%
20:00 +17°C° 0.6 mm 2 mps 765 mmHg 97%
21:00 +18°C° 0.6 mm 1 mps 765 mmHg 97%
22:00 +16°C° 0.6 mm 1 mps 765 mmHg 97%
23:00 +16°C° 0.1 mm 1 mps 765 mmHg 97%

18 Mayo, Martes

Tiempo Temperatura Precipitaciones Viento Presión Humedad
00:00 +16°C° 0.1 mm 1 mps 765 mmHg 96%
01:00 +16°C° 0.1 mm 2 mps 765 mmHg 96%
02:00 +16°C° 0 mm 2 mps 765 mmHg 95%
03:00 +15°C° 0 mm 2 mps 765 mmHg 95%
04:00 +15°C° 0 mm 2 mps 766 mmHg 95%
05:00 +14°C° 0 mm 3 mps 766 mmHg 94%
06:00 +16°C° 0 mm 3 mps 766 mmHg 93%
07:00 +16°C° 0 mm 3 mps 767 mmHg 93%
08:00 +17°C° 0 mm 3 mps 767 mmHg 88%
09:00 +18°C° 0 mm 4 mps 767 mmHg 83%
10:00 +20°C° 0 mm 4 mps 767 mmHg 79%
11:00 +21°C° 0 mm 4 mps 767 mmHg 74%
12:00 +22°C° 0 mm 3 mps 767 mmHg 69%
13:00 +24°C° 0 mm 3 mps 767 mmHg 64%
14:00 +23°C° 0.2 mm 4 mps 766 mmHg 66%
15:00 +23°C° 0.2 mm 4 mps 766 mmHg 68%
16:00 +23°C° 0.2 mm 4 mps 766 mmHg 70%
17:00 +22°C° 0.1 mm 4 mps 766 mmHg 74%
18:00 +21°C° 0.1 mm 3 mps 766 mmHg 77%
19:00 +20°C° 0.1 mm 3 mps 766 mmHg 81%
20:00 +19°C° 0 mm 3 mps 767 mmHg 85%
21:00 +18°C° 0 mm 3 mps 767 mmHg 88%
22:00 +17°C° 0 mm 3 mps 768 mmHg 91%
23:00 +16°C° 0 mm 3 mps 767 mmHg 93%
Mostrar más

Necesitamos Su Consentimiento

Meteoprog y nuestros Proveedores de Servicios pueden almacenar y acceder a sus datos personales como cookies, identificadores de dispositivo u otras tecnologías similares de su dispositivo y procesar dichos datos para personalizar contenido y anuncios, además de ofrecer funciones de redes sociales y analizar el tráfico.

  • Almacenar y/o acceder a información en su dispositivo

    Se puede almacenar o acceder a cookies, identificadores de dispositivo u otra información de su dispositivo para los fines anteriormente indicados.

  • Anuncios y contenido personalizados, medición de anuncios y contenido, percepciones del público, y desarrollo de productos

    Los anuncios y el contenido pueden personalizarse en base a su perfil. Se pueden añadir más datos para personalizar mejor los anuncios y contenidos. Se puede medir el rendimiento de los anuncios y contenidos. Se puede obtener la percepción sobre el público que ha visto los anuncios y contenidos. Dichos datos pueden usarse para desarrollar o mejorar la experiencia del usuario, sistemas y software.

Al hacer clic en ‘Estoy De Acuerdo’ usted permitirá el uso de las cookies, identificadores de dispositivo, balizas web u otras tecnologías similares indicadas. Su configuración puede cambiarse desde el navegador de su dispositivo.

Para ciertos fines, los intereses legítimos pueden ser considerados por encima del consentimiento. Puede leer más sobre ello en nuestra Política de Privacidad y Cookies.